"Pseudo-MPEC" for P116gIP

Created 2020 Sep 18 6:07:36 UT using Find_Orb

Click here for an explanation of pseudo-MPECs

 
 Astrometry: 
     P116gIP  C2020 09 16u8lO7;j+;C^0'y[;MDGAstrometry6(KoN)hm1d_Wmws]\hZAxa@F51
     P116gIP  C2020 09 16ZWmPUnPkHX=`y,.dJGB=xoT[]55PvI-i8*-`=IX##degh3c+1X9lF51
     P116gIP  C2020 09 16oNH+%D.fh.)9j@0nxgqbS8*@5Q4Ox*Wi6EQWg``mS*gcxfPo(]b3F51
     P116gIP  C2020 09 16#dH/xQa\credacted;a%y`WVMqptJ!gy(qI0/1CfOFu'Q6d:xC:8F51
     P116gIP hC2020 09 16TJ@KAnOv0u8hx#wcc8F9@RO^l'[`t6e:a,.7(s-W1u04Ls5j25],L01
     P116gIP hC2020 09 16gfD4n%NBo9\WyDH[=/9)_Iq1v`clickUbv8n=%l+Mr4oA'Qx'ObGL01
     P116gIP hC2020 09 160UPoX!Ub6=8Nf/SXoZ*)OL0Z$k0%T15c;^Bw$Tnp)46Guq+XF1B[L01
     P116gIP hC2020 09 1664koBV^+qB'3`Xl;'x;vhbK_n)`%LAo:f6Bu9x#here_5LTC,X?tL01
     P116gIP KC2020 09 17.00528923 29 21.08 +14 26 19.2    ~9H0q 20.9 GVNEOCPI93
     P116gIP KC2020 09 17.01162823 29 22.04 +14 25 09.2    ~9H0q 22.0 GVNEOCPI93
     P116gIP KC2020 09 17.01806623 29 23.11 +14 23 57.1    ~9H0q 20.4 GVNEOCPI93
     P116gIP KC2020 09 17tk4httH;qn[6*#lpk]P*rW8iDG?rA0,d_f9u7.VMlY@L)e/Zo\7-H21
     P116gIP KC2020 09 17Kk+Ld#Gufor0e46Q'2CiBp\j._Ur?J.013U_@@`oPL)@Wd,TOK6+H21
     P116gIP KC2020 09 17;xjqJdu2N-E*I^JCy?sKn\f7@)b04WcY(3CXKeEUh^%2]D_b-xg.H21
     P116gIP  C2020 09 17.24584 23 30 07.62 +13 41 37.9    ~9H6M 21.0 GVNEOCPV06
     P116gIP  C2020 09 17.24746 23 30 07.87 +13 41 19.6    ~9H6M 21.1 GVNEOCPV06
     P116gIP  C2020 09 17.24908 23 30 08.13 +13 41 01.3    ~9H6M 21.1 GVNEOCPV06
     P116gIP  C2020 09 17.25070 23 30 08.39 +13 40 43.0    ~9H6M 20.7 GVNEOCPV06
     P116gIP  C2020 09 175a7Qrc[_kHexplanation\IH-hHc1,BwCA6_AD].,MpC$B#A#bg%F51
     P116gIP  C2020 09 17xj(,YPID6ku3f1r.UUp;(@_ab\?YIyW:'=MW@qGflZRWR:3a1(D+F51
     P116gIP  C2020 09 17A+H^gA=k@t+GlXX2)%xu9QRkk?SVHwbi\0M#QDnLsyMe1,Q:ePi%F51
     P116gIP  C2020 09 18.15928 23 33 02.95 +10 44 55.4    ~9I4M 20.4 GVNEOCPI52
     P116gIP  C2020 09 18.16096 23 33 03.24 +10 44 35.1    ~9I4M 19.7 GVNEOCPI52
     P116gIP  C2020 09 18.16264 23 33 03.52 +10 44 15.8    ~9I4M 20.6 GVNEOCPI52
     P116gIP  C2020 09 18.16432 23 33 03.79 +10 43 56.3    ~9I4M 19.2 GVNEOCPI52

Station data:
(F51) Pan-STARRS 1, Haleakala  (N20.707235 W156.255910)  US/Hawaii.
   Observers N. Primak, A. Schultz, S. Watters, J. Thiel, T. Goggia. Measurer
   PS1 Science Consortium. 1.8-m Ritchey-Chrétien + CCD.
(H21) Astronomical Research Observatory, Westfield  (N39.483057 W87.968270)
   US/Illinois. 0.76-m f/3.0 astrograph + CCD.
(I52) Steward Observatory, Mt. Lemmon Station  (N32.442547 W110.788920)
   US/Arizona.  Observers T. A. Pruyne, B. M. Africano, E. J. Christensen, G.
   A. Farneth, D. C. Fuls, A. R. Gibbs, A. D. Grauer, H. Gröller, J. A.
   Johnson, R. A. Kowalski, S. M. Larson, G. J. Leonard, D. Rankin, R. L.
   Seaman, F. C. Shelly. 1.0-m reflector + CCD.
(I93) St Pardon de Conques  (N44.558710 W0.203000)  France.  Observer F.
   Losse. 0.40-m f/3.7 reflector + CCD.
(L01) Višnjan Observatory, Tičan  (N45.290900 E13.749300)  Croatia.
   Observers K. Korlević, E. Pettarin. Measurer E. Pettarin. 1.0-m f/2.9
   reflector + CCD.
(V06) Catalina Sky Survey-Kuiper  (N32.416847 W110.732550)  US/Arizona.
   Observers T. A. Pruyne, B. M. Africano, E. J. Christensen, G. A. Farneth,
   D. C. Fuls, A. R. Gibbs, A. D. Grauer, H. Gröller, J. A. Johnson, R. A.
   Kowalski, S. M. Larson, G. J. Leonard, D. Rankin, R. L. Seaman, F. C.
   Shelly. 1.55-m reflector + CCD.

Orbital elements:  P116gIP
   Perihelion 2020 Nov 1.031087 +/- 0.166 TT =  0:44:45 (JD 2459154.531087)
Epoch 2020 Sep 18.0 TT = JDT 2459110.5   Earth MOID: 0.1005   AutoNEOCP
M 330.09671652 +/- 0.19             (J2000 ecliptic)
n   0.67914025 +/- 0.00183          Peri.  217.80579 +/- 0.15
a   1.28182794 +/- 0.00231          Node   178.53511 +/- 0.0010
e   0.1622524 +/- 0.00119           Incl.   23.20990 +/- 0.08
P   1.45/530.07d           H 24.7   G  0.15   U  8.5  
q 1.07384817 +/- 0.000438    Q 1.48980770 +/- 0.00419
From 25 observations 2020 Sept. 16-18 (43.3 hr); mean residual 0".36
Residuals in arcseconds: 
200916 F51  .02+  .00     200917 I93  .10-  .31-    200917 F51  .04+  .10+    
200916 F51  .06+  .19+    200917 I93  .32+  .65-    200917 F51  .05+  .06+    
200916 F51  .07+  .10-    200917 H21  .33+  .18+    200917 F51  .08-  .17+    
200916 F51  .02+  .16-    200917 H21  .44+  .09+    200918 I52  .11+  .13-    
200916 L01  .19-  .40+    200917 H21  .29+  .07-    200918 I52  .08+  .53-    
200916 L01  .20-  .49+    200917 V06  .12+  .06+    200918 I52  .08-  .07+    
200916 L01  .79-  .55+    200917 V06  .01-  .01+    200918 I52  .39-  .48+    
200916 L01  1.2-  .42+    200917 V06  .01+  .04-    
200917 I93  .83+  .91-    200917 V06  .03+  .09-    

Ephemerides (geocentric):
Date (UTC) HH   RA              Dec         delta   r     elong  mag " sig PA
---- -- -- --  -------------   -----------  ------ ------ -----  --- ---- ---
2020 09 18 06  23 33 16.926   +10 27 27.03  .10915 1.1116 167.5 20.8 .158 146
2020 09 18 07  23 33 24.974   +10 19 08.14  .10904 1.1116 167.6 20.8 .160 146
2020 09 18 08  23 33 33.032   +10 10 48.14  .10892 1.1115 167.8 20.8 .162 145
2020 09 18 09  23 33 41.101   +10 02 27.04  .10881 1.1114 167.9 20.8 .164 145
2020 09 18 10  23 33 49.181   +09 54 04.83  .10870 1.1113 168.1 20.8 .166 144
2020 09 18 11  23 33 57.271   +09 45 41.52  .10859 1.1113 168.2 20.8 .167 144
2020 09 18 12  23 34 05.372   +09 37 17.12  .10848 1.1112 168.4 20.8 .169 143
2020 09 18 13  23 34 13.484   +09 28 51.63  .10837 1.1111 168.6 20.8 .171 143
2020 09 18 14  23 34 21.606   +09 20 25.06  .10826 1.1111 168.7 20.8 .173 142
2020 09 18 15  23 34 29.739   +09 11 57.40  .10815 1.1110 168.9 20.7 .175 142
2020 09 18 16  23 34 37.882   +09 03 28.67  .10804 1.1109 169.0 20.7 .177 141
2020 09 18 17  23 34 46.037   +08 54 58.88  .10794 1.1109 169.2 20.7 .179 141
2020 09 18 18  23 34 54.202   +08 46 28.01  .10783 1.1108 169.3 20.7 .181 140
2020 09 18 19  23 35 02.377   +08 37 56.10  .10772 1.1107 169.5 20.7 .183 140
2020 09 18 20  23 35 10.563   +08 29 23.12  .10762 1.1107 169.6 20.7 .185 140
2020 09 18 21  23 35 18.760   +08 20 49.10  .10752 1.1106 169.8 20.7 .187 139
2020 09 18 22  23 35 26.968   +08 12 14.04  .10741 1.1105 169.9 20.7 .189 139
2020 09 18 23  23 35 35.186   +08 03 37.94  .10731 1.1105 170.1 20.7 .191 139
2020 09 19 00  23 35 43.415   +07 55 00.81  .10721 1.1104 170.2 20.7 .193 138
2020 09 19 01  23 35 51.654   +07 46 22.65  .10711 1.1103 170.4 20.7 .195 138
2020 09 19 02  23 35 59.905   +07 37 43.47  .10701 1.1103 170.5 20.7 .197 137
2020 09 19 03  23 36 08.166   +07 29 03.29  .10691 1.1102 170.7 20.7 .199 137
2020 09 19 04  23 36 16.437   +07 20 22.09  .10681 1.1101 170.8 20.6 .201 137
2020 09 19 05  23 36 24.720   +07 11 39.89  .10672 1.1101 171.0 20.6 .203 137
2020 09 19 06  23 36 33.013   +07 02 56.70  .10662 1.1100 171.2 20.6 .205 136
2020 09 19 07  23 36 41.316   +06 54 12.52  .10652 1.1099 171.3 20.6 .208 136
2020 09 19 08  23 36 49.631   +06 45 27.35  .10643 1.1099 171.5 20.6 .210 136
2020 09 19 09  23 36 57.956   +06 36 41.21  .10634 1.1098 171.6 20.6 .212 135
2020 09 19 10  23 37 06.292   +06 27 54.10  .10624 1.1097 171.8 20.6 .214 135
2020 09 19 11  23 37 14.638   +06 19 06.03  .10615 1.1097 171.9 20.6 .216 135
2020 09 19 12  23 37 22.995   +06 10 17.00  .10606 1.1096 172.1 20.6 .219 135
2020 09 19 13  23 37 31.363   +06 01 27.02  .10597 1.1095 172.2 20.6 .221 135
2020 09 19 14  23 37 39.742   +05 52 36.10  .10588 1.1095 172.4 20.6 .223 134
2020 09 19 15  23 37 48.131   +05 43 44.24  .10579 1.1094 172.5 20.6 .225 134
2020 09 19 16  23 37 56.531   +05 34 51.45  .10570 1.1093 172.7 20.5 .228 134
2020 09 19 17  23 38 04.942   +05 25 57.75  .10562 1.1093 172.8 20.5 .230 134
2020 09 19 18  23 38 13.363   +05 17 03.12  .10553 1.1092 173.0 20.5 .233 134
2020 09 19 19  23 38 21.795   +05 08 07.59  .10544 1.1091 173.1 20.5 .235 134
2020 09 19 20  23 38 30.238   +04 59 11.17  .10536 1.1091 173.3 20.5 .237 133
2020 09 19 21  23 38 38.692   +04 50 13.84  .10527 1.1090 173.4 20.5 .240 133
2020 09 19 22  23 38 47.156   +04 41 15.64  .10519 1.1089 173.6 20.5 .242 133
2020 09 19 23  23 38 55.631   +04 32 16.55  .10511 1.1089 173.7 20.5 .245 133
2020 09 20 00  23 39 04.117   +04 23 16.60  .10503 1.1088 173.9 20.5 .247 133
2020 09 20 01  23 39 12.613   +04 14 15.78  .10495 1.1087 174.0 20.5 .250 133
2020 09 20 02  23 39 21.120   +04 05 14.11  .10487 1.1087 174.2 20.5 .253 133
2020 09 20 03  23 39 29.638   +03 56 11.60  .10479 1.1086 174.3 20.5 .255 133
2020 09 20 04  23 39 38.166   +03 47 08.25  .10471 1.1085 174.5 20.4 .258 133
2020 09 20 05  23 39 46.706   +03 38 04.06  .10463 1.1085 174.6 20.4 .261 133